DW6996 Weather Reports


Display with metric or nautical units.
time (UTC)temp
F
wind
direction
speed
MPH
gust
MPH
rain 1hr
in
rain 24hr
in
rain mn
in
humidity
%
barometer
mb
20260505050414 72 208 0.0 1.0 0.00 0.00 0.00 40 1010.2
20260505040908 73 229 0.0 0.0 0.00 0.00 0.00 41 1009.9
20260505040401 73 211 0.0 0.0 0.00 0.00 0.00 41 1010.0
20260505040350 73 194 0.0 1.0 0.00 0.00 0.00 41 1009.9
20260505035401 73 236 0.0 1.0 0.00 0.00 0.00 41 1009.9
20260505035039 73 232 0.0 0.0 0.00 0.00 0.00 41 1009.8
20260505035029 73 223 0.0 0.0 0.00 0.00 0.00 41 1009.9
20260505034809 73 232 0.0 0.0 0.00 0.00 0.00 41 1009.5
20260505034327 73 233 0.0 0.0 0.00 0.00 0.00 41 1009.6
20260505032901 73 219 0.0 0.0 0.00 0.00 0.00 41 1009.4
20260505032401 73 236 0.0 0.0 0.00 0.00 0.00 41 1009.4
20260505031901 73 242 0.0 0.0 0.00 0.00 0.00 41 1009.3
20260505031401 73 219 0.0 0.0 0.00 0.00 0.00 41 1009.3
20260505030901 73 234 0.0 0.0 0.00 0.00 0.00 41 1009.2
20260505030401 73 232 0.0 0.0 0.00 0.00 0.00 41 1009.1
20260505025901 73 233 0.0 0.0 0.00 0.00 0.00 40 1009.1
20260505025620 73 247 0.0 0.0 0.00 0.00 0.00 40 1009.0
20260505024901 73 233 0.0 0.0 0.00 0.00 0.00 40 1009.1
20260505024400 73 225 0.0 0.0 0.00 0.00 0.00 40 1009.2
20260505023901 73 248 0.0 0.0 0.00 0.00 0.00 41 1009.2
20260505023624 74 234 0.0 0.0 0.00 0.00 0.00 41 1009.3
20260505022901 74 242 0.0 4.0 0.00 0.00 0.00 41 1009.1
20260505022402 74 231 0.0 4.0 0.00 0.00 0.00 41 1009.1
20260505021901 74 225 0.0 1.0 0.00 0.00 0.00 41 1009.0
20260505021402 74 236 0.0 1.0 0.00 0.00 0.00 40 1009.0
20260505020901 74 216 0.0 1.0 0.00 0.00 0.00 40 1009.0
20260505020401 74 219 0.0 0.0 0.00 0.00 0.00 40 1009.1
20260505015901 74 231 0.0 0.0 0.00 0.00 0.00 40 1009.0
20260505015402 74 238 0.0 8.0 0.00 0.00 0.00 39 1009.0
20260505014901 74 221 0.0 8.0 0.00 0.00 0.00 39 1008.9
20260505014401 75 232 0.0 0.0 0.00 0.00 0.00 38 1009.0
20260505014122 75 251 0.0 0.0 0.00 0.00 0.00 37 1008.9
20260505013359 75 227 0.0 2.0 0.00 0.00 0.00 37 1008.8
20260505012852 75 225 0.0 2.0 0.00 0.00 0.00 37 1008.8
20260505012345 75 231 0.0 1.0 0.00 0.00 0.00 36 1008.9
20260505011840 75 252 0.0 1.0 0.00 0.00 0.00 36 1008.9
20260505011333 75 265 0.0 1.0 0.00 0.00 0.00 36 1008.8
20260505010831 75 253 0.0 0.0 0.00 0.00 0.00 36 1008.8
20260505010329 76 231 0.0 0.0 0.00 0.00 0.00 36 1008.9
20260505005829 76 229 0.0 0.0 0.00 0.00 0.00 36 1008.9
20260505005329 76 215 0.0 0.0 0.00 0.00 0.00 36 1008.9
20260505004829 76 242 0.0 0.0 0.00 0.00 0.00 36 1009.0
20260505004553 76 255 0.0 0.0 0.00 0.00 0.00 36 1008.9
20260505004311 76 214 0.0 0.0 0.00 0.00 0.00 36 1009.0
20260505003331 76 245 0.0 0.0 0.00 0.00 0.00 36 1009.1
20260505002829 76 237 0.0 0.0 0.00 0.00 0.00 36 1009.1
20260505002330 77 231 0.0 0.0 0.00 0.00 0.00 36 1009.1
20260505001829 77 236 0.0 0.0 0.00 0.00 0.00 35 1009.2
20260505001550 77 235 0.0 0.0 0.00 0.00 0.00 35 1009.1
20260505001313 77 269 0.0 0.0 0.00 0.00 0.00 36 1009.2
20260505000329 77 246 0.0 0.0 0.00 0.00 0.00 36 1009.3
20260504235829 77 203 0.0 6.0 0.00 0.00 0.00 36 1009.3
20260504235329 77 215 0.0 6.0 0.00 0.00 0.00 35 1009.3
20260504234830 77 207 0.0 3.0 0.00 0.00 0.00 35 1009.3
20260504234330 77 218 0.0 3.0 0.00 0.00 0.00 36 1009.3
20260504233829 77 259 0.0 0.0 0.00 0.00 0.00 36 1009.3
20260504233329 77 259 0.0 0.0 0.00 0.00 0.00 37 1009.4
20260504232829 76 238 0.0 0.0 0.00 0.00 0.00 37 1009.2
20260504232330 76 298 0.0 0.0 0.00 0.00 0.00 37 1009.3
20260504231829 76 262 0.0 0.0 0.00 0.00 0.00 37 1009.3
20260504231329 76 211 0.0 0.0 0.00 0.00 0.00 37 1009.4
20260504230829 76 213 0.0 0.0 0.00 0.00 0.00 38 1009.4
20260504230329 76 236 0.0 1.0 0.00 0.00 0.00 38 1009.3
20260504225829 76 245 0.0 1.0 0.00 0.00 0.00 38 1009.4
20260504225328 76 239 0.0 0.0 0.00 0.00 0.00 39 1009.4
20260504224829 76 146 0.0 0.0 0.00 0.00 0.00 38 1009.4
20260504224330 76 169 0.0 1.0 0.00 0.00 0.00 38 1009.4
20260504223828 76 178 0.0 1.0 0.00 0.00 0.00 37 1009.6
20260504223329 76 269 0.0 0.0 0.00 0.00 0.00 37 1009.5
20260504222829 76 149 0.0 1.0 0.00 0.00 0.00 37 1009.6
20260504222329 76 173 0.0 1.0 0.00 0.00 0.00 37 1009.6
20260504221829 76 230 0.0 1.0 0.00 0.00 0.00 38 1009.7
20260504221329 76 221 0.0 0.0 0.00 0.00 0.00 38 1009.8
20260504220829 76 271 0.0 0.0 0.00 0.00 0.00 38 1009.8
20260504220329 76 59 0.0 0.0 0.00 0.00 0.00 38 1010.0
20260504215829 76 238 0.0 0.0 0.00 0.00 0.00 38 1010.2
20260504215551 76 223 0.0 3.0 0.00 0.00 0.00 39 1010.2
20260504214829 76 236 0.0 3.0 0.00 0.00 0.00 39 1010.3
20260504214328 76 212 0.0 5.0 0.00 0.00 0.00 39 1010.3
20260504213828 75 205 0.0 5.0 0.00 0.00 0.00 38 1010.6
20260504213328 75 217 0.0 3.0 0.00 0.00 0.00 38 1010.6
20260504212829 75 246 0.0 3.0 0.00 0.00 0.00 38 1010.6
20260504212329 75 242 0.0 3.0 0.00 0.00 0.00 38 1010.6
20260504211830 76 242 0.0 1.0 0.00 0.00 0.00 37 1010.6
20260504211329 76 243 0.0 1.0 0.00 0.00 0.00 37 1010.7
20260504210829 76 201 1.0 13.0 0.00 0.00 0.00 37 1011.0
20260504210329 76 223 1.0 13.0 0.00 0.00 0.00 37 1011.0
20260504205828 76 225 0.0 8.0 0.00 0.00 0.00 37 1010.9
20260504205326 76 267 0.0 0.0 0.00 0.00 0.00 36 1010.9
20260504204823 76 195 0.0 0.0 0.00 0.00 0.00 37 1011.0
20260504204322 76 247 0.0 3.0 0.00 0.00 0.00 37 1011.0
20260504204047 76 236 0.0 7.0 0.00 0.00 0.00 38 1011.1
20260504203319 76 217 0.0 7.0 0.00 0.00 0.00 38 1011.2
20260504202819 76 234 0.0 7.0 0.00 0.00 0.00 39 1011.2
20260504202319 75 208 1.0 7.0 0.00 0.00 0.00 40 1011.2
20260504201819 75 242 0.0 7.0 0.00 0.00 0.00 41 1011.2
20260504201540 74 225 0.0 2.0 0.00 0.00 0.00 41 1011.2
20260504200820 74 271 0.0 8.0 0.00 0.00 0.00 41 1011.3
20260504200317 75 248 0.0 8.0 0.00 0.00 0.00 41 1011.3
20260504195817 75 227 0.0 1.0 0.00 0.00 0.00 41 1011.1
20260504195317 75 204 0.0 1.0 0.00 0.00 0.00 41 1011.0
20260504195031 75 171 0.0 0.0 0.00 0.00 0.00 42 1010.7
20260504195018 75 229 0.0 0.0 0.00 0.00 0.00 41 1011.0
20260504193812 74 202 0.0 0.0 0.00 0.00 0.00 42 1010.9
20260504193312 74 237 0.0 0.0 0.00 0.00 0.00 42 1011.1
20260504192813 74 205 0.0 0.0 0.00 0.00 0.00 43 1011.1
20260504192313 73 191 0.0 1.0 0.00 0.00 0.00 43 1010.8
20260504191813 73 239 0.0 1.0 0.00 0.00 0.00 43 1011.0
20260504191313 74 234 0.0 0.0 0.00 0.00 0.00 43 1011.4
20260504190812 73 244 0.0 2.0 0.00 0.00 0.00 44 1011.2
20260504190313 73 269 0.0 2.0 0.00 0.00 0.00 44 1011.4
20260504190033 73 232 0.0 1.0 0.00 0.00 0.00 44 1011.1
20260504185308 73 279 0.0 1.0 0.00 0.00 0.00 45 1011.1
20260504184809 73 243 0.0 1.0 0.00 0.00 0.00 44 1011.2
20260504184309 73 207 0.0 1.0 0.00 0.00 0.00 44 1011.1
20260504183809 73 232 0.0 1.0 0.00 0.00 0.00 44 1011.1
20260504183308 73 224 0.0 0.0 0.00 0.00 0.00 45 1011.2
20260504183247 73 235 0.0 0.0 0.00 0.00 0.00 45 1011.1
20260504182528 73 248 0.0 0.0 0.00 0.00 0.00 46 1011.3
20260504181809 72 245 0.0 0.0 0.00 0.00 0.00 46 1011.4
20260504181751 72 273 0.0 4.0 0.00 0.00 0.00 46 1011.6
20260504180808 72 200 0.0 4.0 0.00 0.00 0.00 46 1011.6
20260504180307 72 206 0.0 4.0 0.00 0.00 0.00 46 1011.7
20260504175805 72 207 0.0 5.0 0.00 0.00 0.00 48 1011.7
20260504175527 71 226 0.0 5.0 0.00 0.00 0.00 49 1011.8
20260504174805 71 250 0.0 3.0 0.00 0.00 0.00 49 1011.6
20260504174304 71 240 0.0 1.0 0.00 0.00 0.00 49 1011.5
20260504173805 71 212 0.0 0.0 0.00 0.00 0.00 50 1011.0
20260504173305 71 223 0.0 0.0 0.00 0.00 0.00 50 1010.6
20260504172804 71 205 0.0 0.0 0.00 0.00 0.00 50 1010.7
20260504172304 71 229 0.0 0.0 0.00 0.00 0.00 50 1010.8
20260504171802 70 217 0.0 0.0 0.00 0.00 0.00 50 1011.2
20260504171300 70 241 0.0 1.0 0.00 0.00 0.00 50 1011.1
20260504170801 70 227 0.0 1.0 0.00 0.00 0.00 50 1011.1
20260504170301 70 252 0.0 2.0 0.00 0.00 0.00 50 1011.4
20260504151003 72 253 0.0 1.0 0.00 0.00 0.00 41 1010.9
20260504150232 72 246 0.0 1.0 0.00 0.00 0.00 40 1010.8
20260504140729 72 198 0.0 0.0 0.00 0.00 0.00 39 1009.7
20260504140229 72 198 0.0 0.0 0.00 0.00 0.00 38 1009.7
20260504130722 72 188 0.0 0.0 0.00 0.00 0.00 40 1009.6
20260504130221 72 188 0.0 0.0 0.00 0.00 0.00 40 1009.5
20260504120204 73 188 0.0 0.0 0.00 0.00 0.00 38 1008.8
20260504110705 73 254 0.0 0.0 0.00 0.00 0.00 37 1008.9
20260504110203 73 254 0.0 0.0 0.00 0.00 0.00 37 1008.7
20260504100359 74 254 0.0 0.0 0.00 0.00 0.00 36 1008.9
20260504081700 76 236 0.0 0.0 0.00 0.00 0.00 34 1008.4
20260504081202 76 110 0.0 0.0 0.00 0.00 0.00 32 1008.5
20260504080922 76 109 0.0 0.0 0.00 0.00 0.00 32 1008.4
20260504080201 76 109 0.0 0.0 0.00 0.00 0.00 32 1008.4
20260504070201 77 198 0.0 0.0 0.00 0.00 0.00 31 1008.4
20260504060140 79 190 0.0 1.0 0.00 0.00 0.00 27 1007.8